Regional Weather Roundup
Issued by NWS Pendleton, OR

Home | Current Version | Previous Version | Text Only | Print | Product List | Glossary On
Versions: 1 2 3 4 5 6 7 8 9 10 11 12 13 14 15 16 17 18 19 20 21 22 23 24 25 26 27 28 29 30 31 32 33 34 35 36 37 38 39 40 41 42 43 44 45 46 47 48 49 50
000
ASUS46 KPDT 070025
RWRPDT
PENDLETON REGIONAL WEATHER ROUNDUP
NATIONAL WEATHER SERVICE PENDLETON OREGON
500 PM PDT WED MAY 6 2015

NOTE: FAIR INDICATES FEW OR NO CLOUDS BELOW 12,000 FEET WITH NO
SIGNIFICANT WEATHER AND/OR OBSTRUCTIONS TO VISIBILITY.

# INDICATES UNOFFICIAL STATION AND DATA

WAZ520-070110-
EAST SLOPES OF WASHINGTON CASCADES

CITY            SKY/WX      TMP DP  RH  WIND    PRES   REMARKS
#BUMPING DAM    N/A         45  N/A N/A E1      N/A
#CLE ELUM HS    N/A         50  36  58  SW9     29.95
#CLE ELUM LAKE  N/A         48  36  63  W2      30.01
#CLIFFDEL 2NW   N/A         47  30  51  W7      N/A
#GLENWOOD       N/A         46  37  71  NW8     30.04R
#MANASTASH CYN  N/A         53  28  38  N2      29.93F
#NELSON         N/A         50  37  61  SE3     30.02
#NELSON 3SW     N/A         48  35  60  CALM    30.22
#NILE           N/A         53  33  46  W3      29.25S
#RONALD 2NW     N/A         52  38  59  W2      29.86S
#SNOWDEN        N/A         42  34  73  CALM    N/A
#TEANAWAY 4NE   N/A         52  39  61  SW3     N/A
#TROUT LAKE 1NE N/A         47  38  71  NE10    30.04
$$

WAZ521-070110-
SIMCOE HIGHLANDS

CITY            SKY/WX      TMP DP  RH  WIND    PRES   REMARKS
#BICKLETON HS   N/A         52  21  29  VRB18G26N/A
#CENTERVILLE 4W N/A         51  40  66  NW15    29.73R
#CENTERVILLE 1SWN/A         50  39  66  W15     29.97
#GOLDENDALE     N/A         51  40  66  NW6     N/A
#GOLDENDALE 1NE N/A         52  27  38  W7      N/A
#GOLDENDALE 5WNWN/A         51  39  63  W12     29.99S
#GOODNOE HILLS  N/A         55  36  49  NW21G28 N/A
#LYLE 6NE       N/A         47  40  76  SW1     29.99R
$$

WAZ026-070110-
KITTITAS VALLEY

CITY            SKY/WX      TMP DP  RH  WIND    PRES   REMARKS
ELLENSBURG AP   CLOUDY      57  34  42  NW20    29.96
6HR MIN TEMP:   51; 6HR MAX TEMP:   66; 6HR PCP:  0.02;

YTC-OPS AREA    MOCLDY      45  34  65  W18G25  29.93F WCI 37
#ELLENSBURG CWU N/A         55  33  43  N15     29.91
#ELLENSBURG 3NE N/A         53  37  54  NW7     29.96
#ELLENSBURG 1E  N/A         57  30  35  NW2     N/A
#KITTITAS 4N    N/A         54  33  45  N3      28.28S
#KITTITAS 3S    N/A         53  36  52  N7      29.96
#THORP 6N       N/A         50  36  58  W18G30  29.99
$$

WAZ027-070110-
YAKIMA VALLEY

CITY            SKY/WX      TMP DP  RH  WIND    PRES   REMARKS
SUNNYSIDE AP    MOCLDY      59  32  36  W13     29.95R
YAKIMA AIRPORT  MOCLDY      63  30  29  NW17G24 29.97
6HR MIN TEMP:   60; 6HR MAX TEMP:   67;

#DONALD 2NE     N/A         53  33  46  NE1     28.86R
#MABTON         N/A         58  34  40  W7      29.94
#MOXEE 2E       N/A         45  25  45  CALM    29.85
#NACHES 2SW     N/A         53  36  52  W12     29.96S
#OUTLOOK DOT    N/A         N/A N/A N/A W8      N/A
#SELAH 8E       N/A         51  30  44  NE12G24 N/A
#TERRACE HTS    N/A         60  32  35  N7      29.94
#TOPPENISH      N/A         58  33  39  E15     29.89
#WAPATO 4NE     N/A         53  33  46  NE1     28.86R
#WEST VALLEY    N/A         56  33  42  N7      29.95
#W YAKIMA       N/A         56  32  40  W7      29.97R
#WHITE SWAN 5E  N/A         58  37  45  W14     29.97
#WILEY CITY 3W  N/A         58  26  29  CALM    29.97S
$$

WAZ028-070110-
LOWER COLUMBIA BASIN...WASHINGTON

CITY            SKY/WX      TMP DP  RH  WIND    PRES   REMARKS
PASCO           MOCLDY      66  36  33  N18     29.93
6HR MIN TEMP:   59; 6HR MAX TEMP:   68;

RICHLAND AWOS   PTCLDY      64  32  30  N16     29.93
#BASIN CITY 5SW N/A         61  39  44  N7      29.93
#BENTON CITY    N/A         59  33  37  NE5     29.85
#CONNELL 5N     N/A         62  32  32  N12     29.90
#CONNELL 5NW    N/A         60  36  41  N8      29.88
#ELTOPIA 6NW    N/A         57  37  47  W8      28.90
#KAHLOTUS       N/A         63  29  28  W5      29.90
#KENNEWICK 3S   N/A         63  34  34  N7      29.93
#PATERSON       N/A         58  37  45  NW7     29.92
#PROSSER        N/A         59  29  32  S1      29.93
#SAGEMOOR 2W    N/A         63  37  38  NW12    29.78
#TOUCHET 2S     N/A         64  39  40  W1      29.88
#WEST PASCO     N/A         66  36  33  N9      29.92F
$$

WAZ029-070110-
FOOTHILLS OF THE BLUES...WASHINGTON

CITY            SKY/WX      TMP DP  RH  WIND    PRES   REMARKS
WALLA WALLA AP  PTCLDY      63  29  28  VRB6    29.91
6HR MIN TEMP:   56; 6HR MAX TEMP:   65;

#DAYTON SCHOOL  N/A         59  25  27  W3      29.93
#LOWDEN 2SE     N/A         65  36  34  W3      29.86
#PLEASANT VIEW 1N/A         57  27  31  CALM    29.94
#PRESCOTT       N/A         64  34  33  CALM    29.89
#SUDBURY        N/A         63  N/A N/A CALM    N/A
#WHITMAN COLLEGEN/A         63  34  34  N3      29.94
#WAITSBURG 5S   N/A         60  34  37  NW5     30.00
#WAITSBURG 8N   N/A         58  13  17  E1      29.76
#WALLA WALLA 5E N/A         62  37  39  N6      N/A
#WALLA WALLA U  N/A         63  32  31  CALM    29.89
#WHITMAN MISSIONN/A         65  34  31  E1      29.91S
$$

WAZ030-070110-
BLUE MOUNTAINS...WASHINGTON

CITY            SKY/WX      TMP DP  RH  WIND    PRES   REMARKS
#DIXIE 5SE      N/A         52  26  36  NW6     29.85
$$

ORZ009-041-WAZ024-070110-
COLUMBIA RIVER GORGE

CITY            SKY/WX      TMP DP  RH  WIND    PRES   REMARKS
HOOD RIVER AP   RAIN        48  41  77  SE9     30.02
THE DALLES AP   PTCLDY      55  38  53  W13     30.00
6HR MIN TEMP:   55; 6HR MAX TEMP:   67; 6HR PCP:  TRACE;

#ARLINGTON AIRPON/A         56  40  55  NW10    29.85
#ARLINGTON HS   N/A         59  40  49  S13     29.87R
#CELILO DOT     N/A         58  38  47  SW8     N/A
#MOSIER 1S      N/A         47  38  71  SW8     30.00S
#RUFUS DOT      N/A         60  40  47  N6      N/A

$$

ORZ510-070110-
NORTH CENTRAL OREGON

CITY            SKY/WX      TMP DP  RH  WIND    PRES   REMARKS
#CHENOWITH 1W   N/A         45  39  79  W12     N/A    WCI 39
#COW CYN RST AREN/A         46  31  56  NW10    N/A
#DUFUR 9E       N/A         46  35  65  SW15    30.05  WCI 40
#GRASS VALLEY 1SN/A         50  33  52  NW16    30.03S
#KENT DOT       N/A         52  26  36  NW18    N/A
#MAUPIN SCHOOL  N/A         55  35  47  VRB6    29.99F
#MORO SCHOOL    N/A         51  39  63  NW14    29.98
#SHANIKO 5WSW   N/A         47  26  44  NW13    N/A    WCI 41
#SHANIKO 4NW    N/A         48  25  40  N16G24  29.96  WCI 42
#TYGH VALLEY 2NEN/A         53  36  52  NW16    29.98
#WAPANITIA AIRPON/A         50  33  52  N12     30.00
#WASCO DOT      N/A         57  35  43  W16     N/A
#WASCO AIRPORT  N/A         53  33  46  W17     N/A
#WASCO 5NE      N/A         56  35  45  W10     29.98
$$

ORZ511-070110-
CENTRAL OREGON

CITY            SKY/WX      TMP DP  RH  WIND    PRES   REMARKS
BEND AIRPORT    LGT RAIN    39  36  89  E6      29.98F
MADRAS AIRPORT  CLOUDY      50  32  50  N16     30.00
PRINEVILLE AP   CLOUDY      45  30  55  N14G25  29.98R WCI 39
REDMOND AIRPORT THUNDER     44  35  70  VRB3    29.98R RAIN
#BEND 1SW       N/A         42  34  73  NE1     N/A
#BEND-AWBREY    N/A         39  34  82  NE2     30.00S
#BEND-KIM LN    N/A         41  35  79  CALM    29.94
#CROOKED RVR RANN/A         51  31  46  E13     29.97R
#CULVER         N/A         51  30  44  NW10    29.93S
#LAKE BILLY CHINN/A         51  -11  7  NW17    30.06R
#POWELL BUTTE 3EN/A         47  31  53  E6      N/A
#POWELL BUTTE   N/A         47  28  47  E8      29.60S
#PRINEVILLE 3N  N/A         44  33  65  N12G29  29.95S WCI 38
#WARM SPRINGS   N/A         53  32  45  W8      29.97

$$


ORZ509-070110-
EAST SLOPES OF OREGON CASCADES

CITY            SKY/WX      TMP DP  RH  WIND    PRES   REMARKS
#BLUE BOX PASS  N/A         42  -9  11  NW8     N/A
#CAMP SHERMAN   N/A         51  30  44  N7      30.02
#LA PINE 4NW    N/A         43  31  62  SW5     30.03
#SISTERS AIRPOR N/A         52  37  56  N15G25  30.17S
#SISTERS ODOT   N/A         52  N/A N/A S8      N/A
#SISTERS 1NW    N/A         52  27  38  N16     N/A
#SISTERS 3N     N/A         52  31  44  S3      29.99S
#SUNRIVER       N/A         40  34  79  S1      29.87F
#TUMALO 3W      N/A         42  33  70  E6      29.88
#WANOGA BUTTE D N/A         42  18  38  N3      N/A

$$

ORZ044-070110-
LOWER COLUMBIA BASIN...OREGON

CITY            SKY/WX      TMP DP  RH  WIND    PRES   REMARKS
HERMISTON       PTCLDY      65  27  24  VRB3    29.91
6HR MIN TEMP:   57; 6HR MAX TEMP:   67;

#BOARDMAN SCHOOLN/A         62  35  36  CALM    29.96
#BOARDMAN 8SW   N/A         59  38  45  NW16    29.95R
#ECHO 8SW       N/A         61  32  33  W2      29.93
#IONE SCHOOL    N/A         56  33  42  SE3     29.91
#IRRIGON 4NW    N/A         64  29  27  W7      N/A
#UMATILLA SCHOOLN/A         64  42  45  W9      29.98
#UMATILLA       N/A         64  34  33  N5      29.83R
$$

ORZ507-070110-
NORTHERN FOOTHILLS OF THE BLUES

CITY            SKY/WX      TMP DP  RH  WIND    PRES   REMARKS
PENDLETON AIRPT PTCLDY      60  29  31  W9      29.91
6HR MIN TEMP:   54; 6HR MAX TEMP:   61;

#ADAMS 3WNW     N/A         59  31  34  N5      29.89
#ATHENA         N/A         59  29  32  E2      29.93
#CAYUSE         N/A         60  33  36  NW2     29.90
#HELIX SCHOOL   N/A         59  29  32  W2      29.91
#HELIX 3N       N/A         57  27  31  NW6     29.88
#HELIX 6SW      N/A         60  28  29  N7      29.90
#HOLDMAN 6E     N/A         60  25  26  SE8     29.72
#M-F FERNDALE   N/A         68  34  28  CALM    29.89
#M-F GROVE ELEM N/A         60  27  28  CALM    29.89S
#M-FREEWATER 5SEN/A         62  36  38  N3      29.91
#PENDLETON DNTN N/A         64  30  28  CALM    29.90
#PDT AQUATIC CTRN/A         65  34  31  W9      29.92
#PENDLETON 5NE  N/A         57  33  40  CALM    29.87S
#PDT SUNRIDGE   N/A         62  32  32  W6      29.92
#PENDLETON 7NW  N/A         58  33  39  SW3     29.89
#PILOT ROCK     N/A         58  29  33  W12     29.94R
#TUTUILLA       N/A         62  30  30  W5      29.90
#UMAPINE 2E     N/A         65  37  35  NW2     29.87
#WESTON SCHOOL  N/A         57  23  27  NE2     29.88

$$

ORZ508-070110-
SOUTHERN FOOTHILLS OF THE BLUES

CITY            SKY/WX      TMP DP  RH  WIND    PRES   REMARKS
LEXINGTON       LGT RAIN    55  32  41  NW8     29.97R
#AJAX           N/A         53  27  36  W9      29.90
#CONDON SCHOOL  N/A         44  37  76  CALM    29.93
#CONDON 5W      N/A         37  31  79  E9      29.93
#FOSSIL SCHOOL  N/A         45  37  73  E2      29.94
#HEPPNER EOC    N/A         56  31  38  CALM    29.86
#HEPPNER 4NE    N/A         51  27  39  NW5     29.95
#LEXINGTON 2SE  N/A         55  33  43  SW9     29.90
#MIKKALO        N/A         57  30  35  N17G26  29.96
#OLEX 4N        N/A         59  36  42  CALM    29.94
#RUGGS 5NE      N/A         51  32  48  W14     30.07
#RUGGS 2SW      N/A         47  33  58  W9      29.97

$$

ORZ502-503-070110-
BLUE MOUNTAINS

CITY            SKY/WX      TMP DP  RH  WIND    PRES   REMARKS
#BATTLE MTN DOT N/A         45  36  70  N2      N/A
#HEPPNER 15SE   N/A         42  33  70  CALM    29.83F
#LADD CYN SMT   N/A         47  31  53  N10     N/A
#LADD CREEK ODOTN/A         48  36  63  NE8     N/A
#N POWDER DOT   N/A         48  35  60  N16     N/A    WCI 42
#PIKES PEAK     N/A         51  30  44  N3      27.99
#TOLLGATE       N/A         41  29  62  SW3     29.85
#TROY SCHOOL    N/A         62  37  39  S6      29.73
#UKIAH          N/A         49  32  52  W7      29.96
#WESTON 4E      N/A         53  32  45  N1      29.87
$$

ORZ505-070110-
JOHN DAY BASIN

CITY            SKY/WX      TMP DP  RH  WIND    PRES   REMARKS
JOHN DAY        PTCLDY      44  31  60  W14     29.92S WCI 37
#JOHN DAY KJDY  N/A         50  32  50  SW5     29.95
#MT. VERNON 5SE N/A         40  33  76  SW1     29.88
$$

ORZ506-070110-
OCHOCO AND JOHN DAY HIGHLANDS

CITY            SKY/WX      TMP DP  RH  WIND    PRES   REMARKS
#BUCK CREEK DOT N/A         43  43  100 NW16    N/A    WCI 35
#HORSE RIDGE DO N/A         38  30  73  CALM    N/A
#KEYES SMT DOT  N/A         35  32  89  N14     N/A    WCI 26
#PAULINA SCHOOL N/A         36  28  72  E7      29.92
#PINE MTN OBS   N/A         27  25  92  NW1     N/A
#PRAIRIE CITY   N/A         50  28  42  NW2     29.89
#SENECA         N/A         39  N/A N/A N7      N/A
#SENECA 9NW     N/A         39  35  85  CALM    29.91
$$

ORZ049-070110-
GRANDE RONDE VALLEY

CITY            SKY/WX      TMP DP  RH  WIND    PRES   REMARKS
LA GRANDE       CLOUDY      50  30  46  N7      29.90S
#COVE           N/A         49  40  71  N6      29.91
#COVE SCHOOL    N/A         52  38  59  E1      29.88
#ELGIN 3N       N/A         43  36  76  CALM    29.93R
#ELGIN 1E       N/A         45  39  79  E5      N/A
#IMBLER SCHOOL  N/A         48  35  60  N14     29.89R WCI 42
#ISLAND CITY 4N N/A         62  43  50  CALM    30.04
#LADD CYN DOT   N/A         50  36  58  NE8     N/A
#LA GRANDE ELEM N/A         48  34  58  NW7     29.93S
#UNION 1S       N/A         54  35  48  N10     29.80
$$

ORZ050-070110-
WALLOWA COUNTY

CITY            SKY/WX      TMP DP  RH  WIND    PRES   REMARKS
JOSEPH AIRPORT  LGT DRIZZLE 45  34  65  NW3     29.91
#ENTERPRISE HS  N/A         47  35  63  N1      29.91
#IMNAHA SCHOOL  N/A         56  35  45  S6      29.87
#IMNAHA 10S     N/A         52  33  48  N2      29.87
#JOSEPH 3N      N/A         45  35  68  N6      29.93S
#JOSEPH 3W      N/A         40  35  82  CALM    29.76R
#LOSTINE        N/A         49  36  61  CALM    29.73
#MT HOWARD 8000 N/A         27  25  92  CALM    29.85
#PROMISE 1S     N/A         46  32  58  SW2     30.02
#SHEEP RDG 7000 N/A         29  28  96  CALM    29.97
#WALLOWA SCHOOL N/A         49  37  63  CALM    30.85



$$



USA.gov is the U.S. government's official web portal to all federal, state and local government web resources and services.